QPF
0.08 0.07 0.07 0.06 0.06 0.08 0.09 0.11 0.12 0.17 0.18 0.13 0.11 0.10 0.10 0.11 0.08 0.06 0.05 0.03 0.04 0.05 0.06 0.08 0.09 0.10 0.11 0.14 0.16 0.17 0.16 0.16 0.15 0.14 0.12 0.09 0.07 0.06 0.05 0.05 0.05 0.06 0.06
0.09 0.08 0.07 0.06 0.06 0.06 0.07 0.07 0.07 0.10 0.11 0.10 0.08 0.07 0.08 0.12 0.10 0.08 0.07 0.06 0.04 0.04 0.05 0.06 0.07 0.08 0.09 0.10 0.13 0.15 0.15 0.15 0.15 0.14 0.12 0.10 0.08 0.07 0.06 0.05 0.05 0.05 0.07
0.08 0.08 0.08 0.07 0.07 0.06 0.07 0.06 0.05 0.06 0.08 0.09 0.07 0.07 0.06 0.08 0.08 0.08 0.08 0.08 0.05 0.04 0.04 0.04 0.05 0.05 0.07 0.09 0.12 0.14 0.14 0.14 0.13 0.12 0.11 0.10 0.09 0.08 0.08 0.06 0.05 0.05 0.05
0.07 0.08 0.08 0.08 0.09 0.06 0.06 0.06 0.06 0.06 0.06 0.06 0.07 0.07 0.07 0.07 0.05 0.06 0.07 0.08 0.08 0.05 0.04 0.03 0.04 0.04 0.05 0.07 0.09 0.11 0.12 0.14 0.15 0.14 0.12 0.11 0.09 0.09 0.09 0.08 0.06 0.05 0.04
0.11 0.12 0.12 0.12 0.09 0.07 0.07 0.05 0.06 0.06 0.06 0.06 0.05 0.05 0.05 0.05 0.05 0.04 0.05 0.07 0.08 0.06 0.06 0.04 0.03 0.03 0.04 0.05 0.07 0.10 0.11 0.12 0.13 0.14 0.14 0.12 0.11 0.11 0.10 0.10 0.08 0.07 0.05
0.11 0.13 0.15 0.14 0.12 0.10 0.09 0.07 0.07 0.06 0.06 0.06 0.05 0.05 0.05 0.04 0.04 0.04 0.04 0.05 0.06 0.05 0.05 0.05 0.05 0.04 0.04 0.04 0.05 0.07 0.10 0.10 0.11 0.12 0.13 0.13 0.11 0.12 0.12 0.10 0.09 0.08 0.06
0.10 0.10 0.11 0.11 0.11 0.10 0.09 0.09 0.09 0.08 0.07 0.06 0.06 0.05 0.04 0.03 0.03 0.04 0.04 0.05 0.06 0.06 0.06 0.06 0.06 0.06 0.04 0.03 0.04 0.05 0.08 0.09 0.09 0.09 0.10 0.11 0.11 0.12 0.12 0.12 0.10 0.10 0.08
0.10 0.09 0.10 0.10 0.11 0.14 0.11 0.10 0.07 0.06 0.06 0.08 0.08 0.07 0.05 0.04 0.03 0.02 0.03 0.03 0.04 0.06 0.07 0.06 0.06 0.07 0.05 0.05 0.04 0.03 0.05 0.07 0.09 0.09 0.09 0.09 0.08 0.10 0.11 0.11 0.11 0.11 0.10
0.09 0.10 0.11 0.13 0.14 0.13 0.11 0.10 0.09 0.08 0.07 0.06 0.08 0.08 0.07 0.05 0.04 0.03 0.02 0.02 0.04 0.04 0.05 0.06 0.06 0.07 0.06 0.06 0.05 0.04 0.04 0.04 0.06 0.08 0.10 0.10 0.09 0.07 0.08 0.09 0.10 0.11 0.11
0.10 0.10 0.10 0.10 0.12 0.11 0.09 0.08 0.07 0.08 0.08 0.07 0.07 0.08 0.08 0.07 0.06 0.04 0.03 0.04 0.05 0.05 0.04 0.05 0.06 0.06 0.06 0.05 0.05 0.03 0.04 0.04 0.03 0.05 0.07 0.09 0.09 0.08 0.07 0.07 0.08 0.09 0.10
0.08 0.08 0.08 0.09 0.10 0.11 0.12 0.12 0.07 0.05 0.06 0.07 0.07 0.08 0.08 0.08 0.07 0.06 0.05 0.05 0.06 0.07 0.07 0.07 0.06 0.06 0.05 0.05 0.05 0.03 0.02 0.03 0.04 0.04 0.05 0.05 0.07 0.08 0.08 0.07 0.07 0.07 0.08
0.06 0.07 0.06 0.07 0.09 0.10 0.10 0.08 0.06 0.05 0.06 0.06 0.06 0.06 0.06 0.06 0.06 0.06 0.06 0.06 0.07 0.07 0.07 0.08 0.07 0.07 0.07 0.06 0.05 0.03 0.02 0.02 0.02 0.04 0.05 0.04 0.04 0.05 0.06 0.07 0.08 0.09 0.10
0.05 0.06 0.07 0.06 0.06 0.06 0.07 0.07 0.06 0.05 0.05 0.06 0.06 0.07 0.07 0.06 0.05 0.05 0.06 0.06 0.05 0.05 0.05 0.05 0.05 0.06 0.06 0.06 0.06 0.06 0.03 0.02 0.02 0.02 0.03 0.04 0.04 0.03 0.03 0.04 0.06 0.07 0.08
0.04 0.05 0.07 0.07 0.06 0.06 0.07 0.07 0.06 0.05 0.05 0.06 0.05 0.06 0.06 0.07 0.06 0.06 0.05 0.05 0.04 0.03 0.03 0.04 0.03 0.03 0.04 0.04 0.04 0.04 0.03 0.03 0.02 0.02 0.02 0.03 0.03 0.03 0.03 0.03 0.03 0.04 0.04
0.02 0.02 0.04 0.07 0.08 0.08 0.07 0.07 0.06 0.06 0.06 0.05 0.05 0.06 0.06 0.05 0.06 0.06 0.06 0.05 0.05 0.04 0.03 0.04 0.04 0.03 0.04 0.04 0.04 0.03 0.03 0.03 0.03 0.03 0.03 0.03 0.03 0.03 0.03 0.03 0.02 0.02 0.02
0.02 0.03 0.03 0.04 0.07 0.07 0.08 0.08 0.07 0.06 0.05 0.04 0.05 0.05 0.05 0.06 0.07 0.06 0.05 0.05 0.06 0.05 0.04 0.04 0.04 0.04 0.04 0.02 0.03 0.03 0.04 0.04 0.04 0.05 0.05 0.05 0.05 0.05 0.04 0.04 0.04 0.03 0.03
0.03 0.03 0.04 0.04 0.05 0.06 0.07 0.07 0.06 0.06 0.05 0.04 0.05 0.05 0.06 0.07 0.10 0.10 0.07 0.06 0.06 0.05 0.05 0.04 0.04 0.04 0.04 0.04 0.04 0.04 0.04 0.04 0.04 0.04 0.05 0.06 0.06 0.06 0.06 0.06 0.06 0.05 0.04
0.03 0.03 0.05 0.05 0.05 0.06 0.06 0.05 0.04 0.04 0.04 0.03 0.04 0.05 0.05 0.06 0.08 0.12 0.10 0.07 0.06 0.06 0.05 0.04 0.04 0.03 0.04 0.04 0.05 0.05 0.03 0.02 0.03 0.03 0.04 0.04 0.05 0.05 0.05 0.05 0.04 0.04 0.04
0.04 0.04 0.05 0.05 0.05 0.06 0.05 0.04 0.04 0.03 0.04 0.03 0.04 0.04 0.04 0.03 0.05 0.07 0.09 0.08 0.06 0.05 0.04 0.04 0.03 0.04 0.03 0.04 0.05 0.04 0.04 0.04 0.03 0.03 0.04 0.04 0.04 0.04 0.04 0.04 0.03 0.02 0.02
0.04 0.05 0.06 0.06 0.06 0.06 0.05 0.04 0.03 0.03 0.04 0.03 0.02 0.03 0.03 0.04 0.04 0.05 0.07 0.08 0.07 0.07 0.06 0.05 0.04 0.04 0.05 0.04 0.05 0.04 0.04 0.05 0.04 0.03 0.03 0.03 0.04 0.03 0.03 0.03 0.03 0.02 0.01
0.04 0.04 0.05 0.05 0.08 0.07 0.04 0.03 0.03 0.04 0.05 0.04 0.04 0.04 0.04 0.05 0.06 0.06 0.06 0.08 0.08 0.07 0.07 0.06 0.05 0.05 0.04 0.04 0.04 0.04 0.04 0.05 0.05 0.05 0.04 0.04 0.04 0.04 0.03 0.03 0.03 0.02 0.02
0.05 0.05 0.04 0.04 0.06 0.05 0.03 0.02 0.03 0.05 0.06 0.07 0.08 0.07 0.05 0.05 0.06 0.05 0.04 0.05 0.05 0.04 0.04 0.05 0.05 0.05 0.05 0.06 0.06 0.06 0.06 0.05 0.05 0.05 0.05 0.05 0.04 0.05 0.05 0.05 0.04 0.03 0.02
0.06 0.06 0.04 0.04 0.04 0.04 0.02 0.02 0.03 0.05 0.07 0.07 0.06 0.06 0.05 0.04 0.05 0.05 0.03 0.02 0.02 0.03 0.03 0.04 0.04 0.04 0.05 0.07 0.08 0.07 0.08 0.08 0.07 0.07 0.06 0.05 0.05 0.05 0.04 0.04 0.04 0.03 0.03
0.06 0.04 0.03 0.03 0.03 0.03 0.01 0.01 0.02 0.02 0.04 0.04 0.04 0.03 0.04 0.04 0.04 0.03 0.02 0.02 0.03 0.04 0.04 0.04 0.06 0.06 0.06 0.07 0.08 0.11 0.11 0.12 0.11 0.08 0.08 0.07 0.04 0.05 0.05 0.04 0.03 0.03 0.03
0.06 0.04 0.03 0.03 0.03 0.03 0.01 0.01 0.01 0.02 0.03 0.03 0.03 0.03 0.03 0.03 0.04 0.03 0.03 0.03 0.03 0.04 0.03 0.03 0.04 0.05 0.05 0.06 0.07 0.10 0.10 0.12 0.12 0.09 0.08 0.09 0.06 0.05 0.05 0.05 0.03 0.03 0.03
0.05 0.03 0.02 0.02 0.02 0.02 0.01 0.00 0.01 0.01 0.01 0.02 0.03 0.03 0.03 0.04 0.05 0.04 0.03 0.03 0.03 0.04 0.04 0.03 0.04 0.04 0.04 0.03 0.04 0.05 0.06 0.07 0.09 0.09 0.07 0.07 0.08 0.07 0.07 0.06 0.04 0.04 0.04
MSLP
1012.35 1012.14 1011.84 1011.47 1011.05 1010.60 1010.16 1009.74 1009.35 1009.01 1008.70 1008.45 1008.25 1008.11 1008.05 1008.06 1008.14 1008.28 1008.46 1008.65 1008.83 1008.98 1009.10 1009.20 1009.30 1009.42 1009.59 1009.84 1010.17 1010.58 1011.05 1011.57 1012.10 1012.63 1013.14 1013.62 1014.07 1014.51 1014.92 1015.34 1015.75 1016.17 1016.59
1012.72 1012.49 1012.18 1011.81 1011.40 1010.97 1010.52 1010.05 1009.58 1009.10 1008.64 1008.21 1007.84 1007.55 1007.37 1007.30 1007.35 1007.49 1007.70 1007.94 1008.17 1008.37 1008.52 1008.63 1008.72 1008.82 1008.96 1009.17 1009.47 1009.85 1010.31 1010.83 1011.39 1011.95 1012.50 1013.03 1013.53 1014.00 1014.45 1014.88 1015.31 1015.72 1016.14
1012.98 1012.72 1012.41 1012.07 1011.71 1011.31 1010.88 1010.40 1009.88 1009.32 1008.73 1008.15 1007.62 1007.18 1006.87 1006.71 1006.69 1006.80 1007.02 1007.28 1007.54 1007.78 1007.96 1008.09 1008.18 1008.26 1008.37 1008.54 1008.80 1009.14 1009.57 1010.07 1010.62 1011.19 1011.76 1012.32 1012.85 1013.35 1013.83 1014.29 1014.73 1015.16 1015.58
1013.08 1012.81 1012.52 1012.23 1011.92 1011.58 1011.20 1010.74 1010.21 1009.60 1008.93 1008.25 1007.59 1007.03 1006.60 1006.33 1006.24 1006.30 1006.49 1006.75 1007.02 1007.27 1007.47 1007.61 1007.69 1007.76 1007.84 1007.97 1008.17 1008.46 1008.84 1009.29 1009.80 1010.35 1010.91 1011.47 1012.02 1012.55 1013.06 1013.55 1014.03 1014.49 1014.93
1013.04 1012.77 1012.50 1012.26 1012.01 1011.75 1011.43 1011.03 1010.52 1009.91 1009.21 1008.47 1007.74 1007.09 1006.57 1006.22 1006.05 1006.05 1006.19 1006.41 1006.66 1006.90 1007.08 1007.21 1007.28 1007.32 1007.36 1007.44 1007.58 1007.81 1008.11 1008.50 1008.95 1009.44 1009.97 1010.51 1011.06 1011.61 1012.15 1012.68 1013.20 1013.70 1014.19
1012.92 1012.64 1012.40 1012.20 1012.01 1011.82 1011.57 1011.24 1010.79 1010.22 1009.54 1008.80 1008.05 1007.36 1006.79 1006.37 1006.13 1006.06 1006.13 1006.28 1006.48 1006.66 1006.81 1006.90 1006.94 1006.94 1006.94 1006.97 1007.04 1007.19 1007.41 1007.71 1008.08 1008.51 1008.98 1009.49 1010.02 1010.57 1011.14 1011.70 1012.27 1012.83 1013.37
1012.79 1012.51 1012.29 1012.12 1011.97 1011.83 1011.65 1011.39 1011.01 1010.51 1009.89 1009.20 1008.48 1007.80 1007.21 1006.75 1006.45 1006.30 1006.28 1006.34 1006.45 1006.55 1006.63 1006.66 1006.65 1006.61 1006.56 1006.53 1006.55 1006.62 1006.76 1006.97 1007.25 1007.60 1008.00 1008.45 1008.95 1009.49 1010.07 1010.67 1011.29 1011.90 1012.50
1012.73 1012.45 1012.23 1012.07 1011.95 1011.84 1011.71 1011.51 1011.20 1010.79 1010.26 1009.64 1008.99 1008.35 1007.77 1007.29 1006.94 1006.71 1006.58 1006.53 1006.53 1006.52 1006.51 1006.46 1006.39 1006.29 1006.20 1006.13 1006.10 1006.11 1006.17 1006.30 1006.49 1006.75 1007.07 1007.46 1007.92 1008.43 1009.01 1009.63 1010.28 1010.94 1011.59
1012.80 1012.51 1012.28 1012.10 1011.98 1011.87 1011.76 1011.60 1011.37 1011.03 1010.59 1010.08 1009.51 1008.93 1008.39 1007.90 1007.50 1007.19 1006.95 1006.78 1006.64 1006.52 1006.39 1006.26 1006.12 1005.99 1005.86 1005.75 1005.68 1005.65 1005.66 1005.72 1005.83 1006.00 1006.25 1006.56 1006.96 1007.44 1007.99 1008.61 1009.27 1009.95 1010.63
1013.00 1012.69 1012.43 1012.22 1012.06 1011.94 1011.82 1011.68 1011.48 1011.21 1010.86 1010.44 1009.96 1009.45 1008.94 1008.46 1008.02 1007.63 1007.29 1006.99 1006.72 1006.48 1006.25 1006.03 1005.84 1005.66 1005.51 1005.39 1005.30 1005.24 1005.21 1005.21 1005.26 1005.36 1005.52 1005.76 1006.09 1006.51 1007.02 1007.61 1008.26 1008.94 1009.62
1013.28 1012.94 1012.64 1012.38 1012.17 1012.00 1011.85 1011.69 1011.52 1011.29 1011.01 1010.66 1010.26 1009.82 1009.35 1008.87 1008.40 1007.95 1007.51 1007.10 1006.72 1006.37 1006.04 1005.76 1005.51 1005.31 1005.15 1005.02 1004.93 1004.86 1004.80 1004.77 1004.76 1004.80 1004.89 1005.05 1005.30 1005.66 1006.10 1006.64 1007.25 1007.90 1008.58
1013.55 1013.19 1012.84 1012.52 1012.24 1012.00 1011.79 1011.61 1011.42 1011.22 1010.97 1010.69 1010.35 1009.97 1009.54 1009.07 1008.59 1008.08 1007.58 1007.09 1006.62 1006.18 1005.79 1005.45 1005.17 1004.95 1004.78 1004.66 1004.56 1004.48 1004.41 1004.35 1004.30 1004.27 1004.30 1004.39 1004.56 1004.84 1005.22 1005.69 1006.24 1006.85 1007.49
1013.74 1013.35 1012.95 1012.56 1012.21 1011.89 1011.62 1011.38 1011.16 1010.96 1010.73 1010.49 1010.20 1009.86 1009.47 1009.03 1008.55 1008.03 1007.49 1006.95 1006.43 1005.94 1005.50 1005.13 1004.83 1004.60 1004.43 1004.30 1004.20 1004.11 1004.02 1003.92 1003.83 1003.75 1003.71 1003.74 1003.84 1004.04 1004.34 1004.75 1005.24 1005.79 1006.38
1013.79 1013.36 1012.92 1012.47 1012.04 1011.65 1011.30 1011.01 1010.75 1010.52 1010.30 1010.07 1009.82 1009.52 1009.18 1008.78 1008.32 1007.81 1007.28 1006.73 1006.19 1005.68 1005.22 1004.84 1004.52 1004.28 1004.09 1003.95 1003.83 1003.72 1003.60 1003.47 1003.34 1003.21 1003.12 1003.08 1003.12 1003.25 1003.48 1003.82 1004.25 1004.75 1005.29
1013.69 1013.23 1012.74 1012.24 1011.75 1011.29 1010.88 1010.51 1010.20 1009.94 1009.71 1009.50 1009.27 1009.02 1008.72 1008.37 1007.96 1007.50 1006.99 1006.47 1005.95 1005.45 1005.00 1004.60 1004.28 1004.01 1003.80 1003.63 1003.48 1003.33 1003.17 1003.00 1002.82 1002.65 1002.50 1002.41 1002.39 1002.47 1002.65 1002.93 1003.30 1003.75 1004.25
1013.46 1012.99 1012.47 1011.93 1011.38 1010.87 1010.39 1009.97 1009.62 1009.32 1009.08 1008.86 1008.66 1008.44 1008.19 1007.90 1007.55 1007.15 1006.71 1006.24 1005.75 1005.29 1004.85 1004.45 1004.11 1003.83 1003.58 1003.37 1003.17 1002.97 1002.76 1002.53 1002.30 1002.08 1001.89 1001.76 1001.70 1001.72 1001.86 1002.09 1002.42 1002.83 1003.30
1013.18 1012.69 1012.15 1011.59 1011.01 1010.46 1009.94 1009.48 1009.08 1008.76 1008.49 1008.27 1008.08 1007.89 1007.69 1007.45 1007.18 1006.85 1006.47 1006.06 1005.63 1005.20 1004.79 1004.39 1004.04 1003.72 1003.43 1003.17 1002.91 1002.65 1002.38 1002.10 1001.83 1001.57 1001.34 1001.16 1001.06 1001.05 1001.15 1001.34 1001.63 1002.01 1002.45
1012.90 1012.40 1011.86 1011.29 1010.70 1010.13 1009.59 1009.10 1008.67 1008.32 1008.03 1007.81 1007.62 1007.45 1007.29 1007.10 1006.88 1006.61 1006.31 1005.96 1005.58 1005.19 1004.79 1004.40 1004.03 1003.68 1003.34 1003.02 1002.71 1002.40 1002.08 1001.75 1001.44 1001.14 1000.87 1000.66 1000.53 1000.49 1000.54 1000.70 1000.96 1001.30 1001.71
1012.64 1012.16 1011.62 1011.06 1010.48 1009.91 1009.36 1008.86 1008.42 1008.05 1007.75 1007.51 1007.32 1007.16 1007.01 1006.86 1006.68 1006.46 1006.20 1005.90 1005.56 1005.20 1004.82 1004.43 1004.04 1003.66 1003.29 1002.93 1002.58 1002.22 1001.86 1001.51 1001.16 1000.83 1000.54 1000.30 1000.13 1000.04 1000.06 1000.17 1000.38 1000.68 1001.06
1012.41 1011.94 1011.42 1010.88 1010.33 1009.78 1009.25 1008.75 1008.31 1007.94 1007.62 1007.37 1007.16 1007.00 1006.85 1006.70 1006.54 1006.35 1006.12 1005.85 1005.54 1005.19 1004.82 1004.43 1004.04 1003.64 1003.25 1002.87 1002.49 1002.11 1001.74 1001.37 1001.00 1000.65 1000.34 1000.07 999.86 999.73 999.69 999.75 999.91 1000.16 1000.49
1012.17 1011.70 1011.21 1010.71 1010.19 1009.68 1009.18 1008.72 1008.29 1007.92 1007.60 1007.33 1007.10 1006.92 1006.76 1006.60 1006.43 1006.25 1006.03 1005.77 1005.47 1005.13 1004.77 1004.38 1003.99 1003.59 1003.20 1002.81 1002.43 1002.06 1001.68 1001.31 1000.95 1000.60 1000.26 999.97 999.72 999.54 999.44 999.43 999.51 999.70 999.97
1011.86 1011.41 1010.94 1010.48 1010.01 1009.55 1009.11 1008.68 1008.28 1007.92 1007.60 1007.32 1007.07 1006.86 1006.67 1006.49 1006.31 1006.11 1005.88 1005.62 1005.33 1005.00 1004.64 1004.26 1003.87 1003.49 1003.11 1002.73 1002.37 1002.02 1001.67 1001.32 1000.96 1000.61 1000.27 999.95 999.67 999.43 999.26 999.18 999.19 999.29 999.49
1011.46 1011.01 1010.58 1010.16 1009.75 1009.35 1008.96 1008.59 1008.23 1007.89 1007.58 1007.29 1007.02 1006.78 1006.56 1006.35 1006.14 1005.92 1005.68 1005.42 1005.12 1004.79 1004.44 1004.08 1003.70 1003.33 1002.97 1002.63 1002.29 1001.97 1001.65 1001.33 1001.00 1000.66 1000.32 999.98 999.66 999.38 999.15 998.99 998.92 998.94 999.06
1010.98 1010.54 1010.13 1009.76 1009.41 1009.08 1008.75 1008.43 1008.12 1007.81 1007.50 1007.20 1006.92 1006.65 1006.41 1006.17 1005.93 1005.70 1005.45 1005.17 1004.88 1004.56 1004.22 1003.86 1003.51 1003.15 1002.81 1002.49 1002.18 1001.89 1001.60 1001.31 1001.00 1000.68 1000.35 1000.00 999.66 999.34 999.06 998.84 998.70 998.65 998.69
1010.48 1010.05 1009.67 1009.34 1009.05 1008.78 1008.52 1008.25 1007.98 1007.69 1007.39 1007.09 1006.79 1006.50 1006.23 1005.97 1005.71 1005.46 1005.21 1004.94 1004.66 1004.35 1004.02 1003.67 1003.33 1002.98 1002.65 1002.34 1002.05 1001.77 1001.49 1001.22 1000.94 1000.63 1000.31 999.97 999.62 999.29 998.98 998.71 998.52 998.40 998.37
1010.04 1009.62 1009.28 1009.00 1008.77 1008.55 1008.35 1008.12 1007.88 1007.61 1007.31 1006.99 1006.68 1006.36 1006.07 1005.79 1005.52 1005.27 1005.02 1004.77 1004.49 1004.20 1003.88 1003.55 1003.20 1002.85 1002.52 1002.20 1001.89 1001.61 1001.33 1001.06 1000.79 1000.50 1000.19 999.86 999.52 999.19 998.87 998.59 998.36 998.20 998.13
Thickness
5717 5715 5712 5710 5710 5710 5709 5708 5708 5708 5707 5707 5707 5706 5705 5706 5706 5707 5707 5704 5702 5700 5701 5701 5701 5701 5700 5700 5700 5700 5699 5698 5697 5697 5697 5696 5696 5696 5696 5696 5696 5696 5696
5710 5709 5707 5705 5705 5705 5704 5703 5704 5703 5703 5703 5702 5702 5702 5703 5702 5701 5702 5701 5698 5697 5697 5697 5697 5697 5697 5697 5697 5697 5697 5696 5695 5694 5694 5694 5694 5694 5694 5694 5694 5694 5694
5704 5703 5702 5701 5701 5700 5699 5699 5699 5698 5698 5698 5698 5698 5698 5698 5699 5698 5698 5697 5697 5696 5695 5694 5694 5694 5694 5694 5694 5693 5693 5693 5692 5691 5691 5691 5691 5692 5692 5692 5692 5692 5692
5699 5698 5697 5697 5695 5695 5695 5694 5693 5692 5692 5692 5692 5693 5693 5693 5694 5695 5695 5694 5694 5695 5693 5691 5690 5690 5690 5690 5690 5690 5690 5690 5689 5688 5688 5688 5689 5689 5689 5689 5689 5689 5689
5695 5693 5691 5690 5689 5689 5688 5688 5687 5686 5685 5686 5687 5688 5689 5689 5690 5691 5691 5691 5690 5690 5690 5689 5687 5686 5686 5686 5686 5686 5686 5686 5686 5685 5685 5685 5685 5686 5686 5687 5687 5687 5686
5690 5688 5687 5684 5683 5682 5680 5680 5679 5678 5679 5679 5682 5683 5683 5684 5685 5686 5686 5687 5686 5686 5686 5686 5685 5684 5682 5682 5682 5682 5682 5682 5682 5681 5682 5682 5682 5683 5683 5684 5684 5684 5684
5685 5682 5681 5679 5677 5676 5674 5674 5673 5674 5673 5674 5673 5674 5678 5680 5679 5679 5681 5681 5682 5681 5681 5681 5681 5681 5680 5678 5677 5677 5677 5677 5677 5677 5678 5678 5678 5679 5680 5680 5681 5682 5681
5680 5680 5676 5675 5673 5671 5669 5669 5668 5668 5669 5668 5665 5665 5667 5670 5671 5675 5674 5674 5675 5676 5676 5677 5676 5675 5675 5676 5675 5673 5672 5672 5673 5673 5673 5674 5674 5675 5676 5677 5678 5678 5678
5676 5674 5673 5671 5669 5668 5666 5664 5663 5661 5661 5661 5660 5657 5657 5659 5662 5666 5667 5668 5667 5668 5669 5670 5669 5669 5669 5670 5670 5668 5667 5667 5667 5668 5669 5669 5669 5671 5672 5673 5674 5675 5675
5672 5670 5668 5667 5665 5663 5661 5660 5660 5657 5655 5654 5654 5653 5652 5652 5650 5654 5659 5660 5660 5659 5661 5662 5663 5662 5662 5663 5663 5662 5661 5661 5661 5662 5663 5664 5664 5666 5667 5668 5669 5670 5671
5666 5665 5663 5662 5660 5659 5657 5655 5654 5652 5651 5649 5649 5648 5647 5646 5645 5644 5646 5650 5652 5653 5654 5655 5656 5656 5656 5656 5656 5656 5654 5654 5654 5655 5656 5658 5659 5660 5661 5662 5664 5665 5666
5662 5660 5660 5657 5656 5654 5652 5650 5649 5648 5646 5644 5643 5643 5641 5640 5639 5638 5638 5640 5643 5645 5646 5647 5648 5648 5648 5648 5649 5649 5647 5646 5647 5648 5649 5651 5652 5654 5656 5657 5658 5660 5661
5658 5656 5655 5653 5652 5650 5648 5647 5644 5643 5641 5639 5638 5638 5638 5637 5636 5634 5633 5635 5635 5639 5639 5639 5641 5641 5642 5641 5641 5640 5639 5639 5640 5641 5642 5644 5646 5647 5649 5651 5653 5654 5655
5653 5651 5650 5649 5647 5646 5645 5642 5641 5640 5638 5636 5635 5633 5632 5632 5631 5630 5629 5628 5628 5630 5632 5632 5634 5634 5634 5634 5633 5631 5633 5632 5632 5633 5635 5637 5639 5641 5643 5645 5647 5648 5649
5648 5647 5645 5644 5642 5641 5640 5638 5637 5634 5633 5632 5630 5629 5627 5627 5625 5625 5624 5622 5619 5620 5624 5626 5626 5627 5626 5626 5625 5625 5626 5626 5625 5626 5628 5630 5632 5634 5637 5639 5641 5642 5643
5643 5642 5641 5640 5639 5637 5636 5634 5633 5631 5628 5626 5624 5622 5621 5621 5620 5619 5617 5616 5614 5612 5614 5618 5618 5619 5618 5619 5617 5618 5619 5618 5618 5619 5621 5623 5625 5627 5630 5632 5634 5636 5638
5640 5639 5638 5637 5636 5634 5632 5629 5628 5626 5623 5621 5619 5618 5616 5615 5614 5613 5611 5609 5608 5606 5605 5609 5610 5611 5609 5608 5610 5610 5612 5613 5615 5614 5615 5616 5618 5621 5623 5626 5628 5630 5632
5637 5636 5635 5634 5633 5631 5628 5626 5623 5622 5619 5617 5615 5614 5612 5610 5608 5606 5604 5603 5601 5599 5598 5598 5600 5601 5600 5601 5601 5601 5605 5608 5609 5610 5610 5610 5612 5614 5617 5620 5622 5624 5625
5634 5633 5632 5631 5630 5628 5625 5623 5620 5617 5615 5613 5611 5609 5607 5604 5601 5600 5597 5596 5595 5594 5592 5591 5593 5594 5594 5594 5593 5595 5597 5598 5602 5604 5603 5604 5606 5608 5610 5613 5615 5617 5619
5631 5630 5629 5628 5627 5625 5622 5620 5617 5614 5612 5609 5607 5605 5602 5599 5596 5593 5591 5589 5587 5586 5586 5586 5586 5587 5586 5587 5586 5587 5589 5591 5594 5597 5598 5600 5601 5601 5604 5607 5608 5610 5612
5630 5628 5627 5626 5625 5622 5619 5614 5612 5611 5607 5605 5603 5600 5597 5593 5589 5586 5585 5583 5581 5579 5580 5579 5579 5580 5580 5579 5579 5581 5582 5585 5587 5589 5591 5594 5596 5598 5600 5600 5601 5603 5604
5627 5626 5624 5622 5620 5618 5610 5606 5603 5604 5603 5600 5597 5595 5593 5589 5585 5580 5576 5573 5571 5571 5572 5571 5572 5572 5571 5572 5573 5574 5575 5576 5578 5582 5582 5585 5588 5591 5593 5595 5596 5596 5596
5624 5622 5621 5619 5615 5610 5604 5600 5598 5598 5598 5596 5593 5590 5589 5587 5581 5578 5574 5570 5567 5562 5560 5562 5564 5564 5564 5565 5564 5566 5567 5568 5570 5573 5574 5577 5580 5582 5585 5588 5588 5588 5588
5622 5619 5617 5614 5610 5606 5599 5596 5594 5595 5595 5592 5589 5586 5582 5579 5576 5571 5570 5569 5566 5563 5560 5558 5557 5557 5557 5556 5556 5556 5557 5560 5563 5565 5566 5567 5572 5574 5577 5578 5577 5578 5579
5618 5616 5614 5610 5606 5602 5595 5592 5589 5593 5591 5589 5586 5582 5578 5575 5567 5563 5564 5563 5561 5559 5557 5553 5551 5550 5549 5548 5548 5550 5553 5555 5557 5560 5561 5560 5563 5565 5567 5569 5569 5569 5569
5616 5615 5612 5608 5604 5600 5593 5589 5585 5590 5588 5586 5583 5579 5572 5567 5561 5557 5558 5557 5555 5554 5552 5552 5548 5546 5546 5546 5543 5543 5546 5548 5551 5553 5555 5553 5555 5556 5558 5560 5561 5562 5562